N2332E FA08-KLAL

Flight info

Callsign N2332E
Flight time 0h 29m
Altitude 3000
Route VFR
Aircraft DA40/L-VGDW/C

Departure

Time 2026-04-21 23:46
Airport Orlampa Inc Airport / Fantasy of Flight (FA08)

Arrival

Time 2026-04-22 00:15
Airport Lakeland Linder International Airport (KLAL)
Time Latitude Longitude Altitude Speed Heading
2026-04-21 23:44 28.16869 -81.80788 152 ft 0 kts 217°
2026-04-21 23:45 28.16836 -81.80820 153 ft 32 kts 219°
2026-04-21 23:45 28.16492 -81.81099 278 ft 71 kts 214°
2026-04-21 23:46 28.16069 -81.81382 587 ft 72 kts 213°
2026-04-21 23:46 28.15654 -81.81722 903 ft 72 kts 217°
2026-04-21 23:46 28.15183 -81.81854 1202 ft 79 kts 161°
2026-04-21 23:46 28.14915 -81.81237 1361 ft 91 kts 82°
2026-04-21 23:47 28.14903 -81.80481 1593 ft 102 kts 94°
2026-04-21 23:47 28.14835 -81.79637 1747 ft 114 kts 96°
2026-04-21 23:47 28.14715 -81.78707 1875 ft 120 kts 99°
2026-04-21 23:47 28.14600 -81.77763 1973 ft 126 kts 100°
2026-04-21 23:48 28.14455 -81.76774 2110 ft 126 kts 98°
2026-04-21 23:48 28.14317 -81.75785 2324 ft 114 kts 100°
2026-04-21 23:48 28.14178 -81.74925 2044 ft 138 kts 100°
2026-04-21 23:48 28.14021 -81.73830 1605 ft 152 kts 99°
2026-04-21 23:49 28.13744 -81.72690 1319 ft 149 kts 114°
2026-04-21 23:49 28.13246 -81.71683 1270 ft 145 kts 124°
2026-04-21 23:49 28.12583 -81.71061 1525 ft 114 kts 196°
2026-04-21 23:49 28.11851 -81.71517 1558 ft 124 kts 212°
2026-04-21 23:50 28.11127 -81.71989 1768 ft 119 kts 214°
2026-04-21 23:50 28.10492 -81.72606 1848 ft 124 kts 242°
2026-04-21 23:50 28.10356 -81.73556 1930 ft 125 kts 271°
2026-04-21 23:50 28.10335 -81.74569 1983 ft 127 kts 263°
2026-04-21 23:51 28.10190 -81.75474 2302 ft 114 kts 268°
2026-04-21 23:51 28.10335 -81.76394 2336 ft 127 kts 289°
2026-04-21 23:51 28.10779 -81.77261 2439 ft 125 kts 307°
2026-04-21 23:51 28.11399 -81.78024 2249 ft 145 kts 317°
2026-04-21 23:52 28.12178 -81.78754 1957 ft 145 kts 321°
2026-04-21 23:52 28.12992 -81.79429 1641 ft 144 kts 324°
2026-04-21 23:52 28.13834 -81.80030 1381 ft 140 kts 330°
2026-04-21 23:52 28.14685 -81.80486 1315 ft 128 kts 340°
2026-04-21 23:53 28.15483 -81.80533 1473 ft 111 kts 355°
2026-04-21 23:53 28.15761 -81.81256 1425 ft 114 kts 276°
2026-04-21 23:53 28.15598 -81.82078 1474 ft 114 kts 239°
2026-04-21 23:53 28.15166 -81.82884 1500 ft 124 kts 239°
2026-04-21 23:54 28.14714 -81.83759 1471 ft 132 kts 241°
2026-04-21 23:54 28.14264 -81.84657 1533 ft 131 kts 239°
2026-04-21 23:54 28.13711 -81.85497 1465 ft 138 kts 227°
2026-04-21 23:54 28.13080 -81.86308 1482 ft 135 kts 230°
2026-04-21 23:55 28.12498 -81.87113 1586 ft 130 kts 231°
2026-04-21 23:55 28.11959 -81.87928 1677 ft 128 kts 236°
2026-04-21 23:55 28.11526 -81.88793 1730 ft 126 kts 248°
2026-04-21 23:55 28.11194 -81.89744 1730 ft 131 kts 248°
2026-04-21 23:56 28.10884 -81.90683 1766 ft 121 kts 252°
2026-04-21 23:56 28.10627 -81.91558 1734 ft 117 kts 252°
2026-04-21 23:56 28.10417 -81.92466 1637 ft 120 kts 257°
2026-04-21 23:56 28.10246 -81.93358 1661 ft 113 kts 256°
2026-04-21 23:57 28.10025 -81.94197 1619 ft 105 kts 253°
2026-04-21 23:57 28.09769 -81.94962 1403 ft 104 kts 248°
2026-04-21 23:57 28.09486 -81.95660 1305 ft 90 kts 249°
2026-04-21 23:57 28.09174 -81.96217 1293 ft 80 kts 231°
2026-04-21 23:58 28.08832 -81.96681 1232 ft 76 kts 231°
2026-04-21 23:58 28.08931 -81.96835 530 ft 117 kts 78°
2026-04-21 23:58 28.09343 -81.95811 251 ft 145 kts 57°
2026-04-21 23:58 28.09794 -81.94830 297 ft 135 kts 75°
2026-04-21 23:59 28.10024 -81.93794 302 ft 136 kts 75°
2026-04-21 23:59 28.10236 -81.92789 470 ft 120 kts 86°
2026-04-21 23:59 28.09977 -81.92059 960 ft 99 kts 139°
2026-04-21 23:59 28.09384 -81.91581 1097 ft 112 kts 160°
2026-04-22 00:00 28.08578 -81.91438 1148 ft 124 kts 181°
2026-04-22 00:00 28.07743 -81.91647 1273 ft 123 kts 205°
2026-04-22 00:00 28.06986 -81.92083 1433 ft 119 kts 207°
2026-04-22 00:00 28.06477 -81.92465 1035 ft 71 kts 91°
2026-04-22 00:01 28.06473 -81.92195 755 ft 103 kts 91°
2026-04-22 00:02 28.16393 -81.81204 357 ft 73 kts 219°
2026-04-22 00:02 28.16001 -81.81590 652 ft 75 kts 223°
2026-04-22 00:02 28.15623 -81.81989 957 ft 78 kts 224°
2026-04-22 00:02 28.15093 -81.82251 1147 ft 94 kts 202°
2026-04-22 00:03 28.14387 -81.82563 1140 ft 117 kts 202°
2026-04-22 00:03 28.13640 -81.82897 1139 ft 115 kts 202°
2026-04-22 00:03 28.12915 -81.83222 1163 ft 112 kts 202°
2026-04-22 00:03 28.12208 -81.83537 1238 ft 107 kts 202°
2026-04-22 00:04 28.11541 -81.83888 1291 ft 106 kts 221°
2026-04-22 00:04 28.11124 -81.84583 1294 ft 108 kts 239°
2026-04-22 00:04 28.10738 -81.85326 1297 ft 110 kts 243°
2026-04-22 00:04 28.10386 -81.86080 1364 ft 106 kts 242°
2026-04-22 00:05 28.10043 -81.86811 1437 ft 104 kts 242°
2026-04-22 00:05 28.09732 -81.87531 1484 ft 105 kts 248°
2026-04-22 00:05 28.09444 -81.88310 1499 ft 109 kts 247°
2026-04-22 00:05 28.09147 -81.89108 1503 ft 111 kts 248°
2026-04-22 00:06 28.08847 -81.89915 1506 ft 111 kts 248°
2026-04-22 00:06 28.08586 -81.90739 1531 ft 110 kts 252°
2026-04-22 00:06 28.08339 -81.91555 1554 ft 109 kts 251°
2026-04-22 00:06 28.08167 -81.92389 1578 ft 109 kts 260°
2026-04-22 00:07 28.08027 -81.93236 1594 ft 110 kts 259°
2026-04-22 00:07 28.07892 -81.94059 1591 ft 105 kts 264°
2026-04-22 00:07 28.07934 -81.94861 1589 ft 101 kts 281°
2026-04-22 00:07 28.08021 -81.95636 1593 ft 98 kts 276°
2026-04-22 00:08 28.08033 -81.96406 1593 ft 98 kts 262°
2026-04-22 00:08 28.07907 -81.97160 1592 ft 97 kts 255°
2026-04-22 00:08 28.07676 -81.97889 1549 ft 101 kts 246°
2026-04-22 00:08 28.07335 -81.98615 1456 ft 106 kts 242°
2026-04-22 00:09 28.06922 -81.99322 1363 ft 109 kts 236°
2026-04-22 00:09 28.06495 -82.00034 1268 ft 110 kts 236°
2026-04-22 00:09 28.06066 -82.00749 1206 ft 107 kts 236°
2026-04-22 00:09 28.05657 -82.01430 1203 ft 103 kts 236°
2026-04-22 00:10 28.05250 -82.02081 1204 ft 100 kts 231°
2026-04-22 00:10 28.04756 -82.02634 1170 ft 100 kts 229°
2026-04-22 00:10 28.04348 -82.03293 1168 ft 100 kts 239°
2026-04-22 00:10 28.03916 -82.03699 1344 ft 88 kts 148°
2026-04-22 00:11 28.03325 -82.03164 1269 ft 122 kts 140°
2026-04-22 00:11 28.02631 -82.02556 1288 ft 130 kts 146°
2026-04-22 00:11 28.01970 -82.02153 1122 ft 96 kts 176°
2026-04-22 00:11 28.01362 -82.02239 1023 ft 81 kts 194°
2026-04-22 00:12 28.00892 -82.02506 923 ft 78 kts 227°
2026-04-22 00:12 28.00647 -82.03102 924 ft 86 kts 266°
2026-04-22 00:12 28.00623 -82.03800 944 ft 91 kts 267°
2026-04-22 00:12 28.00418 -82.04385 1070 ft 81 kts 184°
2026-04-22 00:13 27.99792 -82.04341 896 ft 94 kts 180°
2026-04-22 00:13 27.99134 -82.04301 618 ft 92 kts 171°
2026-04-22 00:13 27.99026 -82.03772 376 ft 91 kts 86°
2026-04-22 00:14 27.99036 -82.03197 153 ft 92 kts 90°
2026-04-22 00:14 27.99037 -82.02547 156 ft 73 kts 90°
2026-04-22 00:14 27.99037 -82.02036 154 ft 58 kts 90°
2026-04-22 00:15 27.99039 -82.01487 153 ft 84 kts 90°
2026-04-22 00:15 27.99024 -82.00807 145 ft 66 kts 135°
2026-04-22 00:15 27.99034 -82.00592 144 ft 25 kts
2026-04-22 00:15 27.99060 -82.00719 145 ft 21 kts 238°
2026-04-22 00:16 27.98939 -82.00767 143 ft 10 kts 172°
2026-04-22 00:16 27.98929 -82.00788 143 ft 1 kts 266°
2026-04-22 00:16 27.98858 -82.00927 141 ft 35 kts 174°
2026-04-22 00:17 27.99027 -82.00781 145 ft 0 kts 111°
2026-04-22 00:17 27.99023 -82.00776 145 ft 7 kts 135°
2026-04-22 00:17 27.98985 -82.00765 144 ft 0 kts 184°
2026-04-22 00:18 27.98944 -82.00765 143 ft 18 kts 176°
2026-04-22 00:18 27.98769 -82.00753 139 ft 16 kts 177°
2026-04-22 00:18 27.98739 -82.00765 139 ft 12 kts 260°
2026-04-22 00:18 27.98732 -82.01010 139 ft 40 kts 271°
2026-04-22 00:19 27.98734 -82.01261 139 ft 16 kts 261°
2026-04-22 00:19 27.98705 -82.01258 140 ft 8 kts 136°
2026-04-22 00:19 27.98658 -82.01207 140 ft 7 kts 133°
2026-04-22 00:19 27.98609 -82.01149 140 ft 13 kts 133°
2026-04-22 00:20 27.98566 -82.01153 140 ft 8 kts 236°
2026-04-22 00:20 27.98522 -82.01273 142 ft 20 kts 244°
2026-04-22 00:20 27.98492 -82.01315 142 ft 3 kts 286°
2026-04-22 00:20 27.98515 -82.01364 143 ft 17 kts 277°
2026-04-22 00:21 27.98466 -82.01335 141 ft 20 kts 84°
2026-04-22 00:21 27.98419 -82.01216 141 ft 12 kts 162°
2026-04-22 00:21 27.98387 -82.01202 142 ft 2 kts 116°
2026-04-22 00:21 27.98358 -82.01196 143 ft 8 kts 184°
2026-04-22 00:22 27.98342 -82.01197 142 ft 0 kts 182°